Regional Weather Roundup
Issued by NWS

Home | Current Version | Previous Version | Graphics & Text | Print | Product List | Glossary On
Versions: 1 2 3 4 5 6 7 8 9 10 11 12 13 14 15 16 17 18 19 20 21 22 23 24 25 26 27 28 29 30 31 32 33 34 35 36 37 38 39 40 41 42 43 44 45 46 47 48 49 50
504
ASUS45 KTFX 272110
RWRMT
MONTANA REGIONAL WEATHER ROUNDUP
NATIONAL WEATHER SERVICE GREAT FALLS MT
300 PM MDT MON MAR 27 2017

NOTE: "FAIR" INDICATES FEW OR NO CLOUDS BELOW 12000 FEET WITH NO
SIGNIFICANT WEATHER AND/OR OBSTRUCTIONS TO VISIBILITY.

MTZ001>007-043-272200-
WEST OF THE DIVIDE

CITY           SKY/WX    TMP DP  RH WIND       PRES   REMARKS
KALISPELL      RAIN      42  39  89 SE12      29.94R FOG
MISSOULA       CLOUDY    46  38  73 NW10      29.99S
BUTTE          CLOUDY    42  29  59 NW20G29   29.90R
MULLAN PASS    CLOUDY    29  28  96 VRB7      29.96R WCI  22
ANACONDA         N/A     36  34  93 NE5       29.93R
DEER LODGE       N/A     37  34  87 NW8       29.95R WCI  31
EUREKA           N/A     48  37  66 S5        29.92R
HAMILTON         N/A     48  27  43 N9        29.95F
RONAN            N/A     41  37  85 S9        30.03R
$$

MTZ008-052>055-272200-
SOUTHWEST MONTANA

CITY           SKY/WX    TMP DP  RH WIND       PRES   REMARKS
BOZEMAN        CLOUDY    53  30  41 VRB6      29.84F
DILLON         CLOUDY    54  22  28 SW13      29.82F
W YELLOWSTONE  CLOUDY    37  30  75 S10G20    29.88S WCI  30
ENNIS          PTSUNNY   45  32  61 NE13      29.90S
THREE FORKS      N/A     54  54 100 W14       29.86S
$$

MTZ009-010-012-014-046-048-049-054-272200-
EAST SLOPES AND CENTRAL MONTANA

CITY           SKY/WX    TMP DP  RH WIND       PRES   REMARKS
CUT BANK       CLOUDY    52  27  38 W13       29.83R
GREAT FALLS    CLOUDY    53  27  36 W10       29.84R
MALMSTROM AFB  CLOUDY    53  27  37 W10       29.85R
HELENA         CLOUDY    53  31  42 N7        29.84S
AUGUSTA        PTSUNNY   50  27  40 NW9       29.84S
BOWMANS CRNR   PTSUNNY   48  26  42 NW10      29.83S
CHOTEAU          N/A     54  27  35 NW9G15    29.86S
FAIRFIELD      PTSUNNY   52  27  37 N5        29.83F
POWER          PTSUNNY   49  29  46 N6        29.84R
RAYNESFORD     PTSUNNY   52  25  35 NW9       29.84S
$$

MTZ011-013-016-021-045-047-050-051-272200-
NORTH CENTRAL MONTANA

CITY           SKY/WX    TMP DP  RH WIND       PRES   REMARKS
HAVRE          CLOUDY    57  31  37 CALM      29.81F
LEWISTOWN      CLOUDY    52  26  36 W9        29.83S
N BAR RANCH    PTSUNNY   48  30  49 SE6       29.87R
CHINOOK          N/A     57  34  41 E12       29.82F
DENTON         PTSUNNY   54  26  33 N6        29.80S
FORT BENTON      N/A     57  25  28 MISG      29.83S
GEYSER         PTSUNNY   53  23  31 W14       29.83S
GRASS RANGE    PTSUNNY   52  31  43 E8        29.80S
JUDITH GAP     LGT RAIN  49  30  48 N9        29.83S
STANFORD       CLOUDY    49  25  38 NW5       29.84S
WINIFRED         N/A     54  27  35 W13       29.83S
$$

MTZ017>020-022>027-061-062-272200-
NORTHEAST MONTANA

CITY           SKY/WX    TMP DP  RH WIND       PRES   REMARKS
GLASGOW        CLOUDY    50  34  54 NW8       29.86S
JORDAN           N/A     61  34  36 N10       29.81F
SIDNEY         LGT RAIN  62  40  44 SE17G28   29.85S
WOLF POINT     CLOUDY    58  36  43 E15       29.85F
PLENTYWOOD       N/A     54  34  47 E16       29.89S
POPLAR           N/A     54  37  54 S12G17    29.88R
$$

MTZ028>42-056>058-272200-
SOUTHCENTRAL AND SOUTHEAST MONTANA

CITY           SKY/WX    TMP DP  RH WIND       PRES   REMARKS
BAKER          CLOUDY    62  26  25 SE13      29.84F
BILLINGS       MOSUNNY   58  28  32 E8G17     29.81F
LIVINGSTON     CLOUDY    52  30  43 NW13      29.82S
MILES CITY     CLOUDY    60  35  39 S13       29.81S
BIG TIMBER     SUNNY     54  27  35 VRB6G14   29.84F
FORSYTH          N/A     63  30  29 SE5       29.80S
HARLOWTON      PTSUNNY   52  26  36 W10       29.82S
LAUREL           N/A     59  27  29 CALM      29.81F
$$

REGIONAL REPORTS...DAKOTAS

CITY           SKY/WX    TMP DP  RH WIND       PRES   REMARKS
WILLISTON      PTSUNNY   59  29  31 E12       29.89F
MINOT          PTSUNNY   43  38  82 N9        29.95R
DICKINSON      SUNNY     58  25  28 SE8       29.84F
BEACH            N/A    N/A N/A N/A MISG        N/A
TIOGA            N/A     50  39  66 E10       29.94F
WATFORD CITY     N/A     59  37  44 E15       29.87F
BISMARCK       SUNNY     65  27  23 SE12      29.90F
GRAND FORKS    CLOUDY    43  40  89 N3        30.00F
FARGO          SUNNY     57  41  55 VRB5      29.96S
BUFFALO SD       N/A     63  29  27 SE8       29.78F
RAPID CITY     SUNNY     58  38  47 MISG      29.83F
$$

REGIONAL REPORTS...WYOMING/IDAHO/WASHINGTON

CITY           SKY/WX    TMP DP  RH WIND       PRES   REMARKS
GILLETTE       CLOUDY    59  25  27 VRB3      29.80F
SHERIDAN       CLOUDY    60  31  33 N9        29.81F
BUFFALO WY     CLOUDY    55  29  36 S8        29.83F
CODY           CLOUDY    54  24  31 SE10      29.81F
YELLOWSTONE LA   N/A     36  24  62 SE6       29.90R WCI  31
IDAHO FALLS    CLOUDY    44  38  79 SW14      29.91R
SALMON         PTSUNNY   45  36  70 S3        29.92F
BOISE          MOSUNNY   54  34  46 NW21      30.01F
SPOKANE        PTSUNNY   50  34  54 SW17      30.02R
$$

REGIONAL REPORTS...ALBERTA

CITY           SKY/WX    TMP DP  RH WIND       PRES   REMARKS
EDMONTON       PTSUNNY   39  32  75 E9        29.86S
CALGARY        PTSUNNY   52  19  28 N3        29.79S
LETHBRIDGE     PTSUNNY   55  25  30 W8G17     29.80S
MEDICINE HAT   PTSUNNY   57  27  30 E5        29.81F
WATERTON GATE    N/A     48  25  40 SW13        N/A
CARDSTON         N/A     54  23  30 W8          N/A
MILK RIVER       N/A     54  27  35 NW5         N/A
$$

REGIONAL REPORTS...SASKATCHEWAN

CITY           SKY/WX    TMP DP  RH WIND       PRES   REMARKS
SWIFT CURRENT  MOSUNNY   52  25  35 SE12G18   29.88S
REGINA         CLOUDY    43  36  75 E12       29.97S
CYPRESS HILLS    N/A     46  25  42 SE9G17      N/A
VAL MARIE        N/A     46  37  71 SE10        N/A
ROCKGLEN         N/A     46  30  53 NE1         N/A
ASSINIBOIA       N/A     36  30  80 SE8         N/A  WCI  29
$$




USA.gov is the U.S. government's official web portal to all federal, state and local government web resources and services.